Time,TemperatureF,DewpointF,PressureIn,WindDirection,WindDirectionDegrees,WindSpeedMPH,WindSpeedGustMPH,Humidity,HourlyPrecipIn,Conditions,Clouds,dailyrainin,SoftwareType,DateUTC
2013-08-21 00:05:00,53.9,53.9,29.92,ESE,120,0.0,0.0,100,0.00,,,0.00,Wunderground v.1.15,2013-08-21 07:05:00,
2013-08-21 00:35:00,53.2,53.2,29.92,ESE,120,0.0,0.0,100,0.00,,,0.00,Wunderground v.1.15,2013-08-21 07:35:00,
2013-08-21 01:05:00,52.2,52.2,29.91,ESE,120,0.0,0.0,100,0.00,,,0.00,Wunderground v.1.15,2013-08-21 08:05:00,
2013-08-21 01:35:00,51.6,51.6,29.91,ESE,120,0.0,0.0,100,0.00,,,0.00,Wunderground v.1.15,2013-08-21 08:35:00,
2013-08-21 02:05:00,51.0,51.0,29.91,ESE,120,0.0,0.0,100,0.00,,,0.00,Wunderground v.1.15,2013-08-21 09:05:00,
2013-08-21 02:35:00,50.7,50.7,29.91,ESE,120,0.0,0.0,100,0.00,,,0.00,Wunderground v.1.15,2013-08-21 09:35:00,
2013-08-21 03:05:00,49.8,49.8,29.90,ESE,120,0.0,0.0,100,0.00,,,0.00,Wunderground v.1.15,2013-08-21 10:05:00,
2013-08-21 03:35:00,48.9,48.9,29.90,ESE,120,0.0,0.0,100,0.00,,,0.00,Wunderground v.1.15,2013-08-21 10:35:00,
2013-08-21 04:05:00,48.3,48.3,29.90,ESE,120,0.0,0.0,100,0.00,,,0.00,Wunderground v.1.15,2013-08-21 11:05:00,
2013-08-21 04:35:00,48.8,48.8,29.90,ESE,120,0.0,0.0,100,0.00,,,0.00,Wunderground v.1.15,2013-08-21 11:35:00,
2013-08-21 05:05:00,48.2,48.2,29.90,ESE,120,0.0,0.0,100,0.00,,,0.00,Wunderground v.1.15,2013-08-21 12:05:00,
2013-08-21 05:35:00,47.6,47.6,29.90,ESE,120,0.0,0.0,100,0.00,,,0.00,Wunderground v.1.15,2013-08-21 12:35:00,
2013-08-21 06:05:00,47.3,47.3,29.90,ESE,120,0.0,0.0,100,0.00,,,0.00,Wunderground v.1.15,2013-08-21 13:05:00,
2013-08-21 06:35:00,47.3,47.3,29.91,ESE,120,0.0,0.0,100,0.00,,,0.00,Wunderground v.1.15,2013-08-21 13:35:00,
2013-08-21 07:05:00,48.9,48.9,29.91,ESE,120,0.0,0.0,100,0.00,,,0.00,Wunderground v.1.15,2013-08-21 14:05:00,
2013-08-21 07:35:00,53.2,53.2,29.92,ESE,120,0.0,0.0,100,0.00,,,0.00,Wunderground v.1.15,2013-08-21 14:35:00,
2013-08-21 08:05:00,55.3,55.3,29.91,ESE,120,0.0,0.0,100,0.00,,,0.00,Wunderground v.1.15,2013-08-21 15:05:00,
2013-08-21 08:35:00,-999.9,-99.9,29.91,North,32767,-999.0,0.0,255,-99.99,,,0.00,Wunderground v.1.15,2013-08-21 15:35:00,
2013-08-21 09:05:00,62.0,61.1,29.91,ESE,120,0.0,0.0,97,0.00,,,0.00,Wunderground v.1.15,2013-08-21 16:05:00,
2013-08-21 09:35:00,-999.9,-99.9,29.91,ESE,120,0.0,0.0,255,0.00,,,0.00,Wunderground v.1.15,2013-08-21 16:35:00,
2013-08-21 10:05:00,-999.9,-99.9,29.90,North,32767,-999.0,0.0,255,-99.99,,,0.00,Wunderground v.1.15,2013-08-21 17:05:00,
2013-08-21 10:35:00,68.1,63.4,29.91,ESE,120,0.0,0.0,85,0.00,,,0.00,Wunderground v.1.15,2013-08-21 17:35:00,
2013-08-21 11:05:00,70.6,59.1,29.90,ESE,120,0.0,0.0,67,0.00,,,0.00,Wunderground v.1.15,2013-08-21 18:05:00,
2013-08-21 11:35:00,71.6,60.1,29.90,ESE,120,0.0,0.0,67,0.00,,,0.00,Wunderground v.1.15,2013-08-21 18:35:00,
2013-08-21 12:05:00,73.9,62.2,29.89,ESE,120,0.0,0.0,67,0.00,,,0.00,Wunderground v.1.15,2013-08-21 19:05:00,
2013-08-21 12:35:00,73.3,59.0,29.89,ESE,120,0.0,0.0,61,0.00,,,0.00,Wunderground v.1.15,2013-08-21 19:35:00,
2013-08-21 13:05:00,73.3,59.0,29.88,ESE,120,0.0,0.0,61,0.00,,,0.00,Wunderground v.1.15,2013-08-21 20:05:00,
2013-08-21 13:35:00,73.5,59.2,29.87,ESE,120,0.0,0.0,61,0.00,,,0.00,Wunderground v.1.15,2013-08-21 20:35:00,
2013-08-21 14:05:00,73.5,59.2,29.86,ESE,120,0.0,0.0,61,0.00,,,0.00,Wunderground v.1.15,2013-08-21 21:05:00,
2013-08-21 14:35:00,72.7,57.1,29.86,ESE,120,0.0,0.0,58,0.00,,,0.00,Wunderground v.1.15,2013-08-21 21:35:00,
2013-08-21 15:05:00,71.1,56.0,29.85,ESE,120,0.0,0.0,59,0.00,,,0.00,Wunderground v.1.15,2013-08-21 22:05:00,
2013-08-21 15:35:00,70.1,57.4,29.85,ESE,119,0.0,0.0,64,0.00,,,0.00,Wunderground v.1.15,2013-08-21 22:35:00,
2013-08-21 16:05:00,72.1,57.9,29.83,SSE,151,0.0,0.0,61,0.00,,,0.00,Wunderground v.1.15,2013-08-21 23:05:00,
2013-08-21 16:35:00,73.5,58.8,29.82,SSE,151,0.0,0.0,60,0.00,,,0.00,Wunderground v.1.15,2013-08-21 23:35:00,
2013-08-21 17:05:00,71.8,59.0,29.82,SSE,151,0.0,0.0,64,0.00,,,0.00,Wunderground v.1.15,2013-08-22 00:05:00,
2013-08-21 17:35:00,69.6,56.9,29.81,East,89,0.0,0.0,64,0.00,,,0.00,Wunderground v.1.15,2013-08-22 00:35:00,
2013-08-21 18:05:00,68.4,55.7,29.81,ESE,106,0.0,0.0,64,0.00,,,0.00,Wunderground v.1.15,2013-08-22 01:05:00,
2013-08-21 18:35:00,66.8,54.2,29.81,SSE,168,0.0,0.0,64,0.00,,,0.00,Wunderground v.1.15,2013-08-22 01:35:00,
2013-08-21 19:05:00,66.8,58.6,29.81,SSE,160,0.0,0.0,75,0.00,,,0.00,Wunderground v.1.15,2013-08-22 02:05:00,
2013-08-21 19:35:00,64.8,56.7,29.81,North,32767,-999.0,0.0,75,0.00,,,0.00,Wunderground v.1.15,2013-08-22 02:35:00,
2013-08-21 20:05:00,-999.9,-99.9,29.81,North,32767,-999.0,0.0,255,-99.99,,,0.00,Wunderground v.1.15,2013-08-22 03:05:00,
2013-08-21 20:35:00,-999.9,-99.9,29.82,North,32767,-999.0,0.0,255,-99.99,,,0.00,Wunderground v.1.15,2013-08-22 03:35:00,
2013-08-21 21:05:00,-999.9,-99.9,29.83,North,32767,-999.0,0.0,255,-99.99,,,0.00,Wunderground v.1.15,2013-08-22 04:05:00,
2013-08-21 21:35:00,57.8,56.4,29.84,SSE,160,0.0,0.0,95,0.00,,,0.00,Wunderground v.1.15,2013-08-22 04:35:00,
2013-08-21 22:05:00,56.7,55.9,29.85,SSE,160,0.0,0.0,97,0.00,,,0.00,Wunderground v.1.15,2013-08-22 05:05:00,
2013-08-21 22:35:00,55.7,55.4,29.85,SSE,160,0.0,0.0,99,0.00,,,0.00,Wunderground v.1.15,2013-08-22 05:35:00,
2013-08-21 23:05:00,55.1,55.1,29.84,SSE,160,0.0,0.0,100,0.00,,,0.00,Wunderground v.1.15,2013-08-22 06:05:00,
2013-08-21 23:35:00,54.7,54.7,29.84,SSE,160,0.0,0.0,100,0.00,,,0.00,Wunderground v.1.15,2013-08-22 06:35:00,